Preview of NWS' New Version of Forecast
This preview is not operational and should not be used for support decisions.

Regional Weather Roundup (RWR)

Issued by National Weather Service (NWS)

                            
000
ASUS44 KBMX 200710
RWRAL 
             
ALABAMA REGIONAL WEATHER ROUNDUP
NATIONAL WEATHER SERVICE BIRMINGHAM AL
200 AM CDT MON MAY 20 2019

NOTE: "FAIR" INDICATES FEW OR NO CLOUDS BELOW 12,000 FEET
WITH NO SIGNIFICANT WEATHER AND/OR OBSTRUCTIONS TO VISIBILITY.

THE REMARK "TC" DENOTES TEMPERATURE IN DEGREES CELSIUS.

ALZ001>011-014-016>018-020-200800-
NORTH ALABAMA
  
CITY           SKY/WX    TMP DP  RH WIND       PRES   REMARKS
MUSCLE SHOALS  FAIR      68  65  90 S3        29.99S                  
HUNTSVILLE     MOCLDY    69  68  96 CALM      29.99F                  
DECATUR        MOCLDY    69  67  93 SW6       29.99F                  
HALEYVILLE     CLOUDY    67  66  97 S5        30.03S FOG              
GADSDEN        FAIR      68  68 100 CALM      30.01                   
$$
 
ALZ012-013-022-023-030>036-040>044-200800-
WEST CENTRAL ALABAMA
  
CITY           SKY/WX    TMP DP  RH WIND       PRES   REMARKS
TUSCALOOSA     FAIR      68  65  90 CALM      30.01S                  
DEMOPOLIS      FAIR     N/A N/A N/A CALM      30.01S                  
$$
 
ALZ015-024>026-033>036-041>044-200800-
CENTRAL ALABAMA
  
CITY           SKY/WX    TMP DP  RH WIND       PRES   REMARKS
BIRMINGHAM     FAIR      70  64  81 W3        30.04R                  
MONTGOMERY     FAIR      70  66  87 CALM      30.02S                  
SHELBY CO ARPT FAIR      68  64  87 CALM      30.02S                  
MAXWELL AFB    FAIR      70  66  89 CALM      30.01S                  
GREENVILLE     FAIR      72  64  76 CALM      30.02S                  
SELMA            N/A     66  64  94 CALM      30.01S                  
PRATTVILLE     FAIR      66  66  99 CALM      30.02S                  
BESSEMER       FAIR      66  65  96 CALM      30.03S                  
TALLADEGA      FAIR      71  66  83 CALM      30.02S                  
PELL CITY      SUNNY     68  68 100 CALM      30.02R                  
MARION         FAIR      65  62  91 S3        30.00F                  
SYLACAUGA      MOCLDY    67  65  93 W3        30.02F                  
$$
 
ALZ019-021-028-029-037-038-045>048-200800-
EAST CENTRAL ALABAMA
  
CITY           SKY/WX    TMP DP  RH WIND       PRES   REMARKS
ANNISTON       CLOUDY    70  63  78 CALM      30.02R                  
ALEXANDER CITY NOT AVBL                                               
AUBURN         FAIR      72  63  73 SW3       30.04S                  
$$
 
ALZ051>064-200800-
SOUTHWEST ALABAMA
  
CITY           SKY/WX    TMP DP  RH WIND       PRES   REMARKS
MOBILE         FAIR      70  68  93 CALM      30.01F                  
BROOKLEY FIELD FAIR      72  71  97 CALM      30.01F                  
EVERGREEN      FAIR      72  67  84 CALM      30.03R                  
$$

ALZ049-050-065>069-200800-
SOUTHEAST ALABAMA
  
CITY           SKY/WX    TMP DP  RH WIND       PRES   REMARKS
DOTHAN         CLOUDY    72  67  84 W6        30.05F                  
OZARK          FAIR      70  68  92 S5        30.02S                  
TROY           CLOUDY    68  65  90 CALM      30.03S                  
EUFAULA        NOT AVBL                                               
$$